Weather Roundup
Issued by NWS Springfield, MO

Home | Current Version | Previous Version | Text Only | Print | Product List | Glossary On
Versions: 1 2 3 4 5 6 7 8 9 10 11 12 13 14 15 16 17 18 19 20 21 22 23 24 25 26 27 28 29 30 31 32 33 34 35 36 37 38 39 40 41 42 43 44 45 46 47 48 49 50
000
NZUS99 KSGF 072057
HRRSGF

HOURLY WEATHER
NATIONAL WEATHER SERVICE SPRINGFIELD MO
300 PM CST WED DEC 07 2016

......SGF CWA......

CITY           SKY/WX    TMP DP  RH WIND       PRES   REMARKS
SPRINGFIELD    CLOUDY    35  14  42 N12       30.21R WCI  27
JOPLIN         CLOUDY    35  20  54 N10       30.25R WCI  27
WEST PLAINS    CLOUDY    38  14  37 NE7       30.20R WCI  33
BRANSON        CLOUDY    34  19  55 CALM      30.20R

......SURROUNDING SGF CWA......

CITY           SKY/WX    TMP DP  RH WIND       PRES   REMARKS
CHANUTE        LGT SNOW  29  25  85 N13G22    30.30R FOG     WCI  19
PARSONS        CLOUDY    32  23  69 N10G20    30.30R WCI  24
COFFEYVILLE    CLOUDY    36  20  52 N15       30.28R WCI  27
EMPORIA        LGT SNOW  27  24  89 N14       30.32R FOG     WCI  16
HARRISON AR    CLOUDY    35  20  54 N6        30.19R WCI  30

......KANSAS AND MISSOURI......

CITY           SKY/WX    TMP DP  RH WIND       PRES   REMARKS
KANSAS CTY INT CLOUDY    27  13  55 NW13      30.32R WCI  16
SEDALIA        LGT SNOW  30  25  81 NW9       30.30R WCI  22
ST JOSEPH      CLOUDY    27  13  55 NW14      30.34R WCI  16
ST LOUIS       CLOUDY    37  15  40 NW13      30.22F WCI  29
WICHITA        FLURRIES  31  23  72 N21       30.30R WCI  18
TOPEKA         CLOUDY    28  19  69 N9        30.35S WCI  19
OLATHE         LGT SNOW  25  21  85 NW10      30.31R FOG     WCI  15

......TENNESSEE......

CITY           SKY/WX    TMP DP  RH WIND       PRES   REMARKS
MEMPHIS        CLOUDY    46  34  61 VRB6      30.15S
NASHVILLE      PTSUNNY   49  31  49 N9        30.14R

......ARKANSAS.......

CITY           SKY/WX    TMP DP  RH WIND       PRES   REMARKS
FAYETTEVILLE   CLOUDY    32  25  75 NE8       30.19R WCI  25
FT SMITH       CLOUDY    39  28  64 E10       30.20R WCI  32
LITTLE ROCK    CLOUDY    41  33  73 NE6       30.18S

......OKLAHOMA.......

CITY           SKY/WX    TMP DP  RH WIND       PRES   REMARKS
TULSA          LGT SNOW  34  30  85 E7        30.23R WCI  28
PONCA CITY     CLOUDY    37  19  48 NE15      30.24R WCI  28
MCALESTER      LGT RAIN  40  36  86 N12       30.16R FOG     WCI  33
OKLAHOMA CITY  CLOUDY    37  29  72 NE12      30.17R WCI  29

......IOWA............

CITY           SKY/WX    TMP DP  RH WIND       PRES   REMARKS
DES MOINES     NOT AVBL
QUAD CITIES    MOSUNNY   28  16  60 W15       30.18R WCI  16

......ILLINOIS........

CITY           SKY/WX    TMP DP  RH WIND       PRES   REMARKS
QUINCY         NOT AVBL
CHICAGO        PTSUNNY   26  18  71 SW15      30.09R WCI  14



USA.gov is the U.S. government's official web portal to all federal, state and local government web resources and services.